Location: Bédeille
(43.0872°N, 1.1041°E)
Time: 12:15:51
(UTC+00:00)

Cosmos 841 Rocket - Pass Details

Date: 03 February 2023
Orbit: 746 x 771 km, 74.0° (Epoch: 19 March)

Event Time Altitude Azimuth Distance (km) Brightness Sun altitude
Rises 18:30:38 0° 344° (NNW) 3,255 6.8 -15.0°
Reaches altitude 10° 18:33:08 10° 351° (N) 2,323 6.0 -15.4°
Maximum altitude 18:38:12 45° 64° (ENE) 1,039 3.7 -16.3°
Enters shadow 18:42:36 13° 135° (SE) 2,082 5.4 -17.1°
